DSX (44344 NORAD) Tracking and Keplerian Element Data

This shows tracking and keplerian element data for the satellite.

Feedback or suggestion? Click here.




ElementValue
Catalog44344
NameDSX
Epoch Orbit100
Epoch Day198.42002959
Epoch Year2019
RAAN195.642
Inclination42.2077
Eccentricity0.195858
Argument of Perigee9.5398
Mean Anonmoly353.7105
Mean Motion4.54371383
Decay Rate-2E-08
L11 44344U 19036F 19198.42002959 -.00000002 00000-0 00000-0 0 9990
L22 44344 42.2077 195.6420 1958580 9.5398 353.7105 4.54371383 1003

Live tracking and technical data element details for DSX (NORAD 44344). DSX can be tracked NOW for your location showing map with azimuth and elevation plus other details from your city location.

Track the satellite on the map from your city or location and see movement details for azimuth, elevation, latitude, longitude, range, height, and movement on the map or in text.







IsCatalogInMostPopularTable: catalog: 44344, numindb: 3
Update: records affected: 1



GetName: 44344 DSX

Hit Count: updated at: Fri, 19 Jul 2019 07:44:53 GMT